STARLINK-4077 (53154 NORAD) Tracking and Keplerian Element Data

This shows tracking and keplerian element data for the satellite.

Feedback or suggestion? Click here.




ElementValue
Catalog53154
NameSTARLINK-4077
Epoch Orbit1184
Epoch Day270.25001157
Epoch Year2022
RAAN58.0785
Inclination53.2169
Eccentricity0.0001326
Argument of Perigee58.4394
Mean Anonmoly254.9522
Mean Motion15.16780562
Decay Rate-0.01071106
L11 53154U 22083Y 22270.25001157 -.01071106 00000+0 -58154-1 0 9998
L22 53154 53.2169 58.0785 0001326 58.4394 254.9522 15.16780562 11848

Live tracking and technical data element details for STARLINK-4077 (NORAD 53154). STARLINK-4077 can be tracked NOW for your location showing map with azimuth and elevation plus other details from your city location.

Track the satellite on the map from your city or location and see movement details for azimuth, elevation, latitude, longitude, range, height, and movement on the map or in text.







IsCatalogInMostPopularTable: catalog: 53154, numindb: 9
Update: records affected: 1



GetName: 53154 STARLINK-4077

Hit Count: updated at: Thu, 29 Sep 2022 10:43:24 GMT